Flag for U.S.A. Weather past 2 weeks in Stockton, California, U.S.A.

Now
63 °F

Sunny.


Feels Like: 63 °F
Forecast: 50 / 88 °F
Wind: No wind

Location: Stockton Metropolitan Airport

Current Time: Oct 2, 2014 at 9:48:57 AM

Latest Report: Oct 2, 2014 at 8:55 AM


Visibility: 10 mi

Pressure: 30.03 "Hg

Humidity: 54%

Dew point: 46 °F

Location of StocktonLocation

Historic Weather in Stockton — Graph

°F

Stockton temperature yesterday

Maximum temperature yesterday: 85 °F (at 3:55 PM)
Minimum temperature yesterday: 60 °F (at 6:55 AM)
Average temperature yesterday: 71 °F

Past Weeks' High & Low Weather Summary

 TemperatureHumidityPressure
High92 °F (Sep 17, 2:55 PM)94% (Sep 25, 8:02 AM)30.03 "Hg (Sep 25, 8:02 AM)
Low51 °F (Oct 2, 4:55 AM)21% (Sep 17, 3:55 PM)29.68 "Hg (Sep 17, 4:55 PM)
Average70 °F63%29.89 "Hg
* Reported Sep 17 7:55 AM — Oct 2 7:55 AM, Stockton, Weather by CustomWeather, © 2014

Note: Actual official high and low records may vary slightly from our data, if they occured in-between our weather recording intervals... More about our weather records

Advertising

Stockton weather history for previous 24 hours

 ConditionsComfort  
Time TempWeatherWind HumidityBarometerVisibility
7:55 AM
Oct 2
56 °FClear.No wind70%30.01 "Hg10 mi
6:55 AM54 °FClear.3 mph72%29.99 "Hg10 mi
5:55 AM51 °FClear.5 mph74%29.96 "Hg10 mi
4:55 AM51 °FClear.No wind74%29.95 "Hg10 mi
3:55 AM53 °FClear.No wind72%29.95 "Hg10 mi
2:55 AM54 °FClear.3 mph67%29.94 "Hg10 mi
1:55 AM58 °FClear.3 mph60%29.94 "Hg10 mi
12:55 AM62 °FClear.No wind50%29.92 "Hg10 mi
11:55 PM
Oct 1
65 °FClear.No wind42%29.91 "Hg10 mi
10:55 PM63 °FClear.7 mph45%29.91 "Hg10 mi
9:55 PM65 °FClear.No wind45%29.90 "Hg10 mi
8:55 PM73 °FClear.3 mph32%29.89 "Hg10 mi
7:55 PM70 °FClear.5 mph35%29.88 "Hg10 mi
6:55 PM73 °FSunny.6 mph38%29.86 "Hg10 mi
5:55 PM78 °FSunny.7 mph35%29.84 "Hg10 mi
4:55 PM83 °FSunny.10 mph24%29.84 "Hg10 mi
3:55 PM85 °FSunny.7 mph21%29.84 "Hg10 mi
2:55 PM84 °FSunny.13 mph23%29.85 "Hg10 mi
1:55 PM83 °FSunny.13 mph26%29.86 "Hg10 mi
12:55 PM82 °FSunny.12 mph26%29.88 "Hg10 mi
11:55 AM79 °FSunny.7 mph30%29.89 "Hg10 mi
10:55 AM74 °FSunny.8 mph36%29.91 "Hg10 mi
9:55 AM70 °FSunny.14 mph39%29.91 "Hg10 mi
Weather by CustomWeather, © 2014

See weather overviewHow to use our weather pages